This is the latest recevied weather packets stored in our database for station/object DB0MI. If no packets are shown the sender has not sent any weather packets the latest 10 day(s).
| Time | Temp. | Humidity | Pressure | Rain* | Wind** | Luminosity | Snow |
|---|---|---|---|---|---|---|---|
| 1777384327 | 21.11° C | 36% | 1018.8 hPa | 0 mm | - | - | - |
| 1777383727 | 20.56° C | 36% | 1018.8 hPa | 0 mm | - | - | - |
| 1777383127 | 20.56° C | 37% | 1018.9 hPa | 0 mm | - | - | - |
| 1777382528 | 20° C | 37% | 1018.9 hPa | 0 mm | - | - | - |
| 1777381927 | 20° C | 36% | 1019.1 hPa | 0 mm | - | - | - |
| 1777381327 | 19.44° C | 37% | 1019 hPa | 0 mm | - | - | - |
| 1777380727 | 19.44° C | 36% | 1019 hPa | 0 mm | - | - | - |
| 1777380127 | 19.44° C | 37% | 1019 hPa | 0 mm | - | - | - |
| 1777379527 | 19.44° C | 36% | 1019.1 hPa | 0 mm | - | - | - |
| 1777378927 | 20° C | 35% | 1019.2 hPa | 0 mm | - | - | - |
| 1777378327 | 20.56° C | 35% | 1019 hPa | 0 mm | - | - | - |
| 1777377727 | 20.56° C | 34% | 1019 hPa | 0 mm | - | - | - |
| 1777377127 | 21.11° C | 34% | 1019.1 hPa | 0 mm | - | - | - |
| 1777376527 | 21.11° C | 34% | 1019.1 hPa | 0 mm | - | - | - |
| 1777375927 | 21.67° C | 34% | 1019.1 hPa | 0 mm | - | - | - |
| 1777375327 | 22.22° C | 33% | 1019 hPa | 0 mm | - | - | - |
| 1777374727 | 22.78° C | 33% | 1019.1 hPa | 0 mm | - | - | - |
| 1777374127 | 23.33° C | 32% | 1019.2 hPa | 0 mm | - | - | - |
| 1777373527 | 23.89° C | 31% | 1019.2 hPa | 0 mm | - | - | - |
| 1777372927 | 23.89° C | 32% | 1019.2 hPa | 0 mm | - | - | - |
| 1777372328 | 23.89° C | 31% | 1018.9 hPa | 0 mm | - | - | - |
| 1777371727 | 23.89° C | 32% | 1018.9 hPa | 0 mm | - | - | - |
| 1777371127 | 23.89° C | 33% | 1019 hPa | 0 mm | - | - | - |
| 1777370527 | 22.78° C | 34% | 1018.7 hPa | 0 mm | - | - | - |
| 1777369927 | 22.22° C | 35% | 1018.8 hPa | 0 mm | - | - | - |
* Rain latest hour (hover to see other rain measurements)
** Current wind speed in m/s (hover to see current wind gust speed)